Clay City, Kentucky
Current Conditions -  °F | °C
As of 1:35 PM on Thursday 30 Oct 2014 (Local Time) from KIOB Reporting Station
Overcast Overcast  
Wind Chill: 46°   Ceiling: 2900
Heat Index: 46°   Visibility: 10mi
Dew Point: 36°   Wind: 0mph
Humidity: 66%   Direction: NA
Pressure: 30.15"   Gusts: NA
Location:  37.86°N, 83.92°W
Report Text: KIOB 301735Z AUTO 00000KT 10SM OVC029 08/02 A3015 RMK AO2
Loading
Personal Weather Stations






























Interactive Weather Map
Tropical Storm Tracking
New forecast layout! Learn more

10-Day Weather Forecast

Advertisements
Track Severe Weather on mobile